| time (UTC) | temp C | wind direction | speed KPH | gust KPH | rain 1hr cm | rain 24hr cm | rain mn cm | humidity % | barometer mb |
| 20260508044032 | 11 | 358 | 0.0 | 6.4 | 0.00 | 0.71 | 0.00 | 45 | 1006.6 |
| 20260508043532 | 11 | 221 | 1.6 | 6.4 | 0.00 | 0.71 | 0.00 | 45 | 1006.6 |
| 20260508043049 | 11 | 349 | 1.6 | 6.4 | 0.00 | 0.71 | 0.00 | 45 | 1006.5 |
| 20260508042533 | 11 | 349 | 1.6 | 6.4 | 0.00 | 0.71 | 0.00 | 46 | 1006.5 |
| 20260508042031 | 11 | 1 | 1.6 | 6.4 | 0.00 | 0.71 | 0.00 | 45 | 1006.5 |
| 20260508041530 | 11 | 342 | 0.0 | 9.7 | 0.00 | 0.71 | 0.00 | 45 | 1006.6 |
| 20260508041031 | 11 | 351 | 1.6 | 9.7 | 0.00 | 0.71 | 0.00 | 45 | 1006.6 |
| 20260508040531 | 11 | 9 | 0.0 | 6.4 | 0.00 | 0.71 | 0.00 | 45 | 1006.5 |
| 20260508040035 | 11 | 344 | 0.0 | 8.0 | 0.00 | 0.71 | 0.00 | 46 | 1006.5 |
| 20260508035527 | 11 | 358 | 0.0 | 8.0 | 0.00 | 0.71 | 0.71 | 44 | 1006.5 |
| 20260508035027 | 11 | 356 | 0.0 | 9.7 | 0.00 | 0.71 | 0.71 | 44 | 1006.6 |
| 20260508034527 | 11 | 360 | 0.0 | 9.7 | 0.00 | 0.71 | 0.71 | 44 | 1006.6 |
| 20260508034027 | 11 | 8 | 1.6 | 6.4 | 0.00 | 0.71 | 0.71 | 45 | 1006.5 |
| 20260508033525 | 11 | 22 | 0.0 | 8.0 | 0.00 | 0.71 | 0.71 | 44 | 1006.5 |
| 20260508033026 | 11 | 319 | 0.0 | 8.0 | 0.00 | 0.71 | 0.71 | 44 | 1006.5 |
| 20260508032530 | 11 | 353 | 0.0 | 6.4 | 0.00 | 0.71 | 0.71 | 45 | 1006.5 |
| 20260508032026 | 11 | 349 | 1.6 | 8.0 | 0.00 | 0.71 | 0.71 | 44 | 1006.6 |
| 20260508031524 | 11 | 20 | 0.0 | 8.0 | 0.00 | 0.71 | 0.71 | 44 | 1006.5 |
| 20260508031024 | 11 | 357 | 0.0 | 8.0 | 0.00 | 0.71 | 0.71 | 46 | 1006.5 |
| 20260508030524 | 11 | 187 | 0.0 | 6.4 | 0.00 | 0.71 | 0.71 | 46 | 1006.5 |
| 20260508030026 | 11 | 14 | 0.0 | 6.4 | 0.00 | 0.71 | 0.71 | 45 | 1006.6 |
| 20260508025522 | 11 | 1 | 0.0 | 6.4 | 0.00 | 0.71 | 0.71 | 44 | 1006.7 |
| 20260508025025 | 11 | 350 | 0.0 | 8.0 | 0.00 | 0.71 | 0.71 | 44 | 1006.9 |
| 20260508024522 | 12 | 41 | 0.0 | 8.0 | 0.00 | 0.71 | 0.71 | 44 | 1007.0 |
| 20260508024022 | 12 | 162 | 0.0 | 3.2 | 0.00 | 0.71 | 0.71 | 44 | 1007.0 |
| 20260508023523 | 12 | 169 | 0.0 | 4.8 | 0.00 | 0.71 | 0.71 | 44 | 1007.0 |
| 20260508023022 | 12 | 150 | 0.0 | 4.8 | 0.00 | 0.71 | 0.71 | 44 | 1007.0 |
| 20260508022522 | 12 | 176 | 0.0 | 4.8 | 0.00 | 0.71 | 0.71 | 43 | 1006.9 |
| 20260508022022 | 12 | 17 | 0.0 | 4.8 | 0.00 | 0.71 | 0.71 | 43 | 1006.9 |
| 20260508021521 | 12 | 169 | 0.0 | 9.7 | 0.00 | 0.71 | 0.71 | 44 | 1007.0 |
| 20260508021021 | 12 | 345 | 0.0 | 9.7 | 0.00 | 0.71 | 0.71 | 43 | 1006.9 |
| 20260508020521 | 12 | 357 | 0.0 | 6.4 | 0.00 | 0.71 | 0.71 | 43 | 1007.0 |
| 20260508020029 | 12 | 358 | 0.0 | 6.4 | 0.00 | 0.71 | 0.71 | 43 | 1007.1 |
| 20260508015520 | 12 | 352 | 0.0 | 6.4 | 0.00 | 0.71 | 0.71 | 44 | 1007.1 |
| 20260508015020 | 12 | 5 | 0.0 | 3.2 | 0.00 | 0.71 | 0.71 | 44 | 1007.1 |
| 20260508014522 | 12 | 4 | 0.0 | 3.2 | 0.00 | 0.71 | 0.71 | 44 | 1007.0 |
| 20260508014020 | 12 | 4 | 0.0 | 6.4 | 0.00 | 0.71 | 0.71 | 44 | 1007.0 |
| 20260508013520 | 12 | 8 | 0.0 | 6.4 | 0.00 | 0.71 | 0.71 | 44 | 1006.9 |
| 20260508013019 | 12 | 353 | 0.0 | 3.2 | 0.00 | 0.71 | 0.71 | 44 | 1006.9 |
| 20260508012524 | 12 | 355 | 0.0 | 1.6 | 0.00 | 0.71 | 0.71 | 44 | 1006.9 |
| 20260508012019 | 12 | 358 | 0.0 | 1.6 | 0.00 | 0.71 | 0.71 | 43 | 1006.7 |
| 20260508011520 | 12 | 358 | 0.0 | 1.6 | 0.00 | 0.71 | 0.71 | 43 | 1006.7 |
| 20260508011019 | 13 | 356 | 0.0 | 3.2 | 0.00 | 0.71 | 0.71 | 43 | 1006.7 |
| 20260508010520 | 13 | 354 | 0.0 | 3.2 | 0.00 | 0.71 | 0.71 | 42 | 1006.6 |
| 20260508010020 | 13 | 351 | 0.0 | 3.2 | 0.00 | 0.71 | 0.71 | 41 | 1006.5 |
| 20260508005518 | 13 | 358 | 0.0 | 3.2 | 0.00 | 0.71 | 0.71 | 41 | 1006.4 |
| 20260508005017 | 13 | 356 | 0.0 | 4.8 | 0.00 | 0.71 | 0.71 | 41 | 1006.3 |
| 20260508004518 | 13 | 7 | 0.0 | 4.8 | 0.00 | 0.71 | 0.71 | 41 | 1006.4 |
| 20260508004017 | 13 | 1 | 0.0 | 8.0 | 0.00 | 0.71 | 0.71 | 40 | 1006.2 |
| 20260508003520 | 13 | 154 | 3.2 | 8.0 | 0.00 | 0.71 | 0.71 | 39 | 1006.1 |
| 20260508003018 | 13 | 351 | 0.0 | 3.2 | 0.00 | 0.71 | 0.71 | 41 | 1006.0 |
| 20260508002519 | 13 | 358 | 0.0 | 4.8 | 0.00 | 0.71 | 0.71 | 40 | 1005.9 |
| 20260508002018 | 13 | 8 | 0.0 | 4.8 | 0.00 | 0.71 | 0.71 | 39 | 1005.6 |
| 20260508001536 | 13 | 355 | 1.6 | 4.8 | 0.00 | 0.71 | 0.71 | 39 | 1005.4 |
| 20260508001017 | 14 | 150 | 0.0 | 3.2 | 0.00 | 0.71 | 0.71 | 39 | 1005.5 |
| 20260508000518 | 14 | 356 | 0.0 | 6.4 | 0.00 | 0.71 | 0.71 | 39 | 1005.3 |
| 20260508000017 | 14 | 345 | 0.0 | 11.3 | 0.00 | 0.71 | 0.71 | 39 | 1005.4 |
| 20260507235517 | 15 | 360 | 0.0 | 11.3 | 0.00 | 0.71 | 0.71 | 39 | 1005.4 |
| 20260507235016 | 15 | 17 | 3.2 | 8.0 | 0.00 | 0.71 | 0.71 | 38 | 1005.2 |
| 20260507234518 | 15 | 337 | 0.0 | 11.3 | 0.00 | 0.71 | 0.71 | 38 | 1005.2 |
| 20260507234052 | 15 | 12 | 1.6 | 11.3 | 0.00 | 0.71 | 0.71 | 37 | 1005.1 |
| 20260507233516 | 15 | 8 | 1.6 | 9.7 | 0.00 | 0.71 | 0.71 | 37 | 1005.1 |
| 20260507233018 | 15 | 137 | 1.6 | 12.9 | 0.00 | 0.71 | 0.71 | 37 | 1005.1 |
| 20260507232517 | 15 | 358 | 0.0 | 12.9 | 0.00 | 0.71 | 0.71 | 37 | 1005.1 |
| 20260507232015 | 15 | 11 | 1.6 | 8.0 | 0.00 | 0.71 | 0.71 | 37 | 1004.9 |
| 20260507231515 | 16 | 338 | 1.6 | 14.5 | 0.00 | 0.71 | 0.71 | 37 | 1004.9 |
| 20260507231015 | 16 | 337 | 3.2 | 14.5 | 0.00 | 0.71 | 0.71 | 36 | 1004.8 |
| 20260507230515 | 16 | 6 | 3.2 | 12.9 | 0.00 | 0.71 | 0.71 | 37 | 1004.8 |
| 20260507230015 | 16 | 357 | 1.6 | 11.3 | 0.00 | 0.79 | 0.71 | 36 | 1004.7 |
| 20260507225517 | 16 | 337 | 1.6 | 11.3 | 0.00 | 0.79 | 0.71 | 36 | 1004.7 |
| 20260507225015 | 16 | 355 | 1.6 | 16.1 | 0.00 | 0.79 | 0.71 | 36 | 1004.6 |
| 20260507224513 | 16 | 141 | 3.2 | 16.1 | 0.00 | 0.79 | 0.71 | 36 | 1004.5 |
| 20260507224014 | 16 | 349 | 1.6 | 17.7 | 0.00 | 0.79 | 0.71 | 36 | 1004.5 |
| 20260507223517 | 16 | 353 | 1.6 | 17.7 | 0.00 | 0.79 | 0.71 | 36 | 1004.5 |
| 20260507223014 | 17 | 12 | 3.2 | 14.5 | 0.00 | 0.79 | 0.71 | 35 | 1004.3 |
| 20260507222514 | 17 | 26 | 4.8 | 14.5 | 0.00 | 0.79 | 0.71 | 35 | 1004.3 |
| 20260507222013 | 17 | 358 | 0.0 | 11.3 | 0.00 | 0.79 | 0.71 | 36 | 1004.2 |
| 20260507221514 | 17 | 2 | 3.2 | 14.5 | 0.00 | 0.79 | 0.71 | 35 | 1004.1 |
| 20260507221014 | 17 | 360 | 1.6 | 14.5 | 0.00 | 0.79 | 0.71 | 35 | 1004.0 |
| 20260507220513 | 17 | 15 | 3.2 | 11.3 | 0.00 | 0.79 | 0.71 | 37 | 1004.1 |
| 20260507220021 | 17 | 318 | 1.6 | 12.9 | 0.00 | 0.84 | 0.71 | 36 | 1004.1 |
| 20260507215511 | 17 | 343 | 3.2 | 12.9 | 0.00 | 0.84 | 0.71 | 36 | 1004.0 |
| 20260507215013 | 17 | 353 | 3.2 | 12.9 | 0.00 | 0.84 | 0.71 | 34 | 1004.1 |
| 20260507214512 | 17 | 3 | 3.2 | 12.9 | 0.00 | 0.84 | 0.71 | 35 | 1004.0 |
| 20260507214012 | 17 | 344 | 1.6 | 8.0 | 0.00 | 0.84 | 0.71 | 37 | 1003.8 |
| 20260507213513 | 17 | 1 | 0.0 | 9.7 | 0.00 | 0.84 | 0.71 | 34 | 1003.9 |
| 20260507213013 | 17 | 3 | 1.6 | 12.9 | 0.00 | 0.84 | 0.71 | 35 | 1003.8 |
| 20260507212511 | 18 | 22 | 4.8 | 12.9 | 0.00 | 0.84 | 0.71 | 34 | 1003.8 |
| 20260507212012 | 18 | 359 | 3.2 | 12.9 | 0.00 | 0.84 | 0.71 | 34 | 1003.8 |
| 20260507211511 | 18 | 339 | 4.8 | 12.9 | 0.00 | 0.84 | 0.71 | 33 | 1003.7 |
| 20260507211010 | 18 | 346 | 3.2 | 9.7 | 0.00 | 0.84 | 0.71 | 33 | 1003.6 |
| 20260507210510 | 18 | 9 | 3.2 | 12.9 | 0.00 | 0.84 | 0.71 | 31 | 1003.6 |
| 20260507210010 | 18 | 351 | 3.2 | 12.9 | 0.00 | 0.86 | 0.71 | 32 | 1003.6 |
| 20260507205509 | 18 | 353 | 0.0 | 9.7 | 0.00 | 0.86 | 0.71 | 33 | 1003.6 |
| 20260507205012 | 18 | 8 | 1.6 | 9.7 | 0.00 | 0.86 | 0.71 | 31 | 1003.6 |
| 20260507204507 | 18 | 3 | 3.2 | 14.5 | 0.00 | 0.86 | 0.71 | 30 | 1003.6 |
| 20260507204010 | 19 | 346 | 4.8 | 16.1 | 0.00 | 0.86 | 0.71 | 31 | 1003.6 |
| 20260507203507 | 19 | 3 | 4.8 | 16.1 | 0.00 | 0.86 | 0.71 | 31 | 1003.6 |
| 20260507203009 | 19 | 8 | 3.2 | 14.5 | 0.00 | 0.86 | 0.71 | 30 | 1003.6 |
| 20260507202506 | 20 | 211 | 3.2 | 14.5 | 0.00 | 0.86 | 0.71 | 32 | 1003.6 |
| 20260507202006 | 20 | 5 | 4.8 | 12.9 | 0.00 | 0.86 | 0.71 | 32 | 1003.5 |
| 20260507201506 | 19 | 355 | 4.8 | 11.3 | 0.00 | 0.86 | 0.71 | 31 | 1003.5 |
| 20260507201005 | 19 | 312 | 4.8 | 17.7 | 0.00 | 0.86 | 0.71 | 31 | 1003.6 |
| 20260507200505 | 20 | 337 | 6.4 | 17.7 | 0.00 | 0.86 | 0.71 | 30 | 1003.7 |
| 20260507200004 | 20 | 8 | 6.4 | 17.7 | 0.00 | 0.91 | 0.71 | 30 | 1003.5 |
| 20260507195502 | 20 | 5 | 6.4 | 17.7 | 0.00 | 0.91 | 0.71 | 30 | 1003.7 |
| 20260507195003 | 20 | 8 | 1.6 | 17.7 | 0.00 | 0.91 | 0.71 | 29 | 1003.7 |
| 20260507194600 | 20 | 30 | 3.2 | 16.1 | 0.00 | 0.91 | 0.71 | 29 | 1003.6 |
| 20260507194058 | 20 | 194 | 4.8 | 9.7 | 0.00 | 0.91 | 0.71 | 32 | 1003.7 |
| 20260507193557 | 20 | 323 | 0.0 | 11.3 | 0.00 | 0.91 | 0.71 | 33 | 1003.7 |
| 20260507193058 | 20 | 360 | 1.6 | 12.9 | 0.00 | 0.91 | 0.71 | 30 | 1003.9 |
| 20260507192554 | 20 | 358 | 1.6 | 12.9 | 0.00 | 0.91 | 0.71 | 33 | 1004.0 |
| 20260507192056 | 20 | 5 | 1.6 | 16.1 | 0.00 | 0.91 | 0.71 | 30 | 1004.1 |
| 20260507191556 | 20 | 360 | 3.2 | 16.1 | 0.00 | 0.91 | 0.71 | 32 | 1004.1 |
| 20260507191050 | 19 | 36 | 1.6 | 12.9 | 0.00 | 0.91 | 0.71 | 30 | 1004.2 |
| 20260507190550 | 20 | 10 | 4.8 | 12.9 | 0.00 | 0.91 | 0.71 | 30 | 1004.3 |
| 20260507190054 | 20 | 3 | 1.6 | 6.4 | 0.00 | 0.91 | 0.71 | 33 | 1004.2 |
| 20260507185548 | 20 | 2 | 1.6 | 11.3 | 0.00 | 0.91 | 0.71 | 36 | 1004.3 |
| 20260507185048 | 19 | 180 | 1.6 | 11.3 | 0.00 | 0.91 | 0.71 | 33 | 1004.3 |
| 20260507184551 | 19 | 215 | 3.2 | 11.3 | 0.00 | 0.91 | 0.71 | 35 | 1004.4 |
| 20260507184048 | 20 | 11 | 4.8 | 12.9 | 0.00 | 0.91 | 0.71 | 32 | 1004.5 |
| 20260507183548 | 20 | 11 | 1.6 | 12.9 | 0.00 | 0.91 | 0.71 | 36 | 1004.6 |
| 20260507183047 | 20 | 3 | 0.0 | 11.3 | 0.00 | 0.91 | 0.71 | 35 | 1004.5 |
| 20260507182546 | 19 | 4 | 1.6 | 16.1 | 0.00 | 0.91 | 0.71 | 34 | 1004.7 |
| 20260507182044 | 19 | 25 | 8.0 | 16.1 | 0.00 | 0.91 | 0.71 | 32 | 1004.7 |
| 20260507181547 | 19 | 5 | 1.6 | 11.3 | 0.00 | 0.91 | 0.71 | 34 | 1004.9 |
| 20260507181044 | 18 | 338 | 1.6 | 9.7 | 0.00 | 0.91 | 0.71 | 35 | 1004.8 |
| 20260507180544 | 18 | 2 | 3.2 | 11.3 | 0.00 | 0.91 | 0.71 | 35 | 1005.0 |
| 20260507180044 | 18 | 360 | 3.2 | 11.3 | 0.00 | 0.91 | 0.71 | 36 | 1005.1 |
| 20260507175542 | 19 | 14 | 1.6 | 12.9 | 0.00 | 0.91 | 0.71 | 40 | 1005.0 |
| 20260507175042 | 18 | 208 | 3.2 | 12.9 | 0.00 | 0.91 | 0.71 | 42 | 1005.0 |
| 20260507174546 | 18 | 9 | 3.2 | 9.7 | 0.00 | 0.91 | 0.71 | 44 | 1005.1 |
| 20260507174040 | 18 | 13 | 1.6 | 9.7 | 0.00 | 0.91 | 0.71 | 40 | 1005.0 |
| 20260507173542 | 18 | 22 | 3.2 | 9.7 | 0.00 | 0.91 | 0.71 | 38 | 1005.1 |
| 20260507173040 | 18 | 360 | 1.6 | 11.3 | 0.00 | 0.91 | 0.71 | 38 | 1005.1 |
| 20260507172539 | 18 | 347 | 4.8 | 11.3 | 0.00 | 0.91 | 0.71 | 38 | 1005.1 |
| 20260507172037 | 18 | 164 | 0.0 | 14.5 | 0.00 | 0.91 | 0.71 | 45 | 1005.1 |
| 20260507171538 | 17 | 246 | 1.6 | 14.5 | 0.00 | 0.91 | 0.71 | 41 | 1005.3 |
| 20260507171037 | 17 | 346 | 3.2 | 12.9 | 0.00 | 0.91 | 0.71 | 41 | 1005.3 |
| 20260507170538 | 17 | 341 | 1.6 | 12.9 | 0.00 | 0.91 | 0.71 | 41 | 1005.3 |
| 20260507170043 | 17 | 19 | 3.2 | 12.9 | 0.00 | 0.91 | 0.71 | 39 | 1005.5 |
| 20260507165534 | 18 | 8 | 0.0 | 9.7 | 0.00 | 0.91 | 0.71 | 42 | 1005.5 |
| 20260507165034 | 17 | 199 | 3.2 | 16.1 | 0.00 | 0.91 | 0.71 | 42 | 1005.6 |
| 20260507164534 | 17 | 5 | 1.6 | 16.1 | 0.00 | 0.91 | 0.71 | 46 | 1005.8 |
| 20260507164031 | 17 | 327 | 3.2 | 12.9 | 0.00 | 0.91 | 0.71 | 44 | 1005.7 |
| 20260507163531 | 17 | 338 | 1.6 | 12.9 | 0.00 | 0.91 | 0.71 | 45 | 1005.8 |
| 20260507163030 | 17 | 3 | 3.2 | 12.9 | 0.00 | 0.91 | 0.71 | 46 | 1005.8 |
| 20260507162529 | 17 | 197 | 0.0 | 9.7 | 0.00 | 0.91 | 0.71 | 47 | 1005.8 |
| 20260507162028 | 16 | 293 | 1.6 | 9.7 | 0.00 | 0.91 | 0.71 | 47 | 1005.9 |
| 20260507161528 | 16 | 13 | 0.0 | 9.7 | 0.00 | 0.91 | 0.71 | 47 | 1005.8 |
| 20260507161028 | 16 | 358 | 3.2 | 14.5 | 0.00 | 0.91 | 0.71 | 50 | 1006.0 |
| 20260507160529 | 16 | 191 | 3.2 | 14.5 | 0.00 | 0.91 | 0.71 | 52 | 1006.0 |
| 20260507160026 | 16 | 325 | 3.2 | 11.3 | 0.00 | 0.91 | 0.71 | 51 | 1006.0 |
| 20260507155506 | 16 | 343 | 1.6 | 12.9 | 0.00 | 0.91 | 0.71 | 52 | 1006.1 |
| 20260507155004 | 16 | 354 | 3.2 | 12.9 | 0.00 | 0.91 | 0.71 | 50 | 1006.2 |
| 20260507154504 | 16 | 353 | 3.2 | 8.0 | 0.00 | 0.91 | 0.71 | 57 | 1006.1 |
| 20260507154002 | 16 | 15 | 1.6 | 11.3 | 0.00 | 0.91 | 0.71 | 59 | 1006.2 |
| 20260507153502 | 16 | 7 | 4.8 | 11.3 | 0.00 | 0.91 | 0.71 | 61 | 1006.3 |
| 20260507153006 | 16 | 353 | 3.2 | 11.3 | 0.00 | 0.91 | 0.71 | 60 | 1006.1 |
| 20260507152504 | 15 | 23 | 0.0 | 9.7 | 0.00 | 0.91 | 0.71 | 60 | 1006.2 |
| 20260507152003 | 15 | 3 | 3.2 | 11.3 | 0.00 | 0.91 | 0.71 | 61 | 1006.3 |
| 20260507151600 | 15 | 360 | 4.8 | 11.3 | 0.00 | 0.91 | 0.71 | 61 | 1006.3 |
| 20260507151059 | 15 | 86 | 4.8 | 14.5 | 0.00 | 0.91 | 0.71 | 63 | 1006.4 |
| 20260507150558 | 15 | 21 | 4.8 | 14.5 | 0.00 | 0.91 | 0.71 | 63 | 1006.4 |
| 20260507150056 | 15 | 3 | 3.2 | 11.3 | 0.00 | 0.91 | 0.71 | 63 | 1006.4 |
| 20260507145556 | 15 | 22 | 3.2 | 11.3 | 0.00 | 0.91 | 0.71 | 67 | 1006.5 |
| 20260507145054 | 14 | 209 | 1.6 | 11.3 | 0.00 | 0.91 | 0.71 | 67 | 1006.5 |
| 20260507144552 | 14 | 351 | 0.0 | 12.9 | 0.00 | 0.91 | 0.71 | 70 | 1006.5 |
| 20260507144055 | 14 | 360 | 3.2 | 12.9 | 0.00 | 0.91 | 0.71 | 69 | 1006.5 |
| 20260507143552 | 14 | 7 | 3.2 | 11.3 | 0.00 | 0.91 | 0.71 | 72 | 1006.4 |
| 20260507143053 | 13 | 344 | 1.6 | 11.3 | 0.00 | 0.91 | 0.71 | 72 | 1006.4 |
| 20260507142552 | 13 | 343 | 0.0 | 11.3 | 0.00 | 0.91 | 0.71 | 74 | 1006.5 |
| 20260507142050 | 13 | 9 | 1.6 | 9.7 | 0.00 | 0.91 | 0.71 | 76 | 1006.7 |
| 20260507141551 | 13 | 214 | 0.0 | 8.0 | 0.00 | 0.91 | 0.71 | 77 | 1006.7 |
| 20260507141049 | 13 | 345 | 0.0 | 8.0 | 0.00 | 0.91 | 0.71 | 78 | 1006.6 |
| 20260507140551 | 13 | 10 | 1.6 | 12.9 | 0.00 | 0.91 | 0.71 | 76 | 1006.6 |
| 20260507140051 | 12 | 4 | 3.2 | 12.9 | 0.00 | 0.91 | 0.71 | 76 | 1006.8 |
| 20260507135549 | 12 | 360 | 0.0 | 8.0 | 0.00 | 0.91 | 0.71 | 80 | 1006.9 |
| 20260507135046 | 12 | 241 | 1.6 | 8.0 | 0.00 | 0.91 | 0.71 | 82 | 1006.8 |
| 20260507134550 | 12 | 339 | 0.0 | 8.0 | 0.00 | 0.91 | 0.71 | 84 | 1006.9 |
| 20260507134045 | 12 | 360 | 1.6 | 8.0 | 0.00 | 0.91 | 0.71 | 82 | 1006.8 |
| 20260507133545 | 12 | 26 | 1.6 | 6.4 | 0.00 | 0.91 | 0.71 | 84 | 1006.9 |
| 20260507133045 | 11 | 4 | 0.0 | 4.8 | 0.00 | 0.91 | 0.71 | 86 | 1006.9 |
| 20260507132544 | 11 | 351 | 0.0 | 4.8 | 0.00 | 0.91 | 0.71 | 85 | 1006.8 |
| 20260507132048 | 11 | 357 | 0.0 | 4.8 | 0.00 | 0.91 | 0.71 | 86 | 1006.8 |
| 20260507131644 | 11 | 334 | 1.6 | 4.8 | 0.00 | 0.91 | 0.71 | 85 | 1006.9 |
| 20260507131044 | 11 | 147 | 0.0 | 3.2 | 0.00 | 0.91 | 0.71 | 87 | 1007.0 |
| 20260507130544 | 11 | 4 | 0.0 | 3.2 | 0.00 | 0.91 | 0.71 | 88 | 1007.1 |
| 20260507130055 | 11 | 197 | 0.0 | 4.8 | 0.00 | 0.91 | 0.71 | 89 | 1007.1 |
| 20260507125542 | 11 | 358 | 0.0 | 4.8 | 0.00 | 0.91 | 0.71 | 89 | 1006.6 |
| 20260507125041 | 11 | 6 | 1.6 | 4.8 | 0.00 | 0.91 | 0.71 | 88 | 1006.6 |
| 20260507124548 | 11 | 11 | 0.0 | 1.6 | 0.00 | 0.91 | 0.71 | 89 | 1006.8 |
| 20260507124041 | 11 | 360 | 0.0 | 4.8 | 0.00 | 0.91 | 0.71 | 90 | 1006.8 |
| 20260507123541 | 11 | 360 | 0.0 | 4.8 | 0.00 | 0.91 | 0.71 | 91 | 1006.7 |
| 20260507123042 | 11 | 9 | 0.0 | 0.0 | 0.00 | 0.91 | 0.71 | 91 | 1006.7 |
| 20260507122542 | 11 | 9 | 0.0 | 3.2 | 0.00 | 0.91 | 0.71 | 92 | 1006.8 |
| 20260507122041 | 11 | 10 | 0.0 | 3.2 | 0.00 | 0.91 | 0.71 | 91 | 1006.9 |
| 20260507121541 | 11 | 8 | 0.0 | 0.0 | 0.03 | 0.91 | 0.71 | 92 | 1006.8 |
| 20260507121041 | 10 | 8 | 0.0 | 0.0 | 0.03 | 0.91 | 0.71 | 92 | 1006.9 |
| 20260507120541 | 10 | 8 | 0.0 | 0.0 | 0.05 | 0.91 | 0.71 | 92 | 1007.0 |
| 20260507120043 | 10 | 8 | 0.0 | 0.0 | 0.05 | 0.91 | 0.71 | 92 | 1007.0 |
| 20260507115539 | 10 | 8 | 0.0 | 0.0 | 0.08 | 0.91 | 0.71 | 92 | 1007.1 |
| 20260507115040 | 10 | 4 | 0.0 | 1.6 | 0.08 | 0.91 | 0.71 | 92 | 1007.1 |
| 20260507114541 | 10 | 4 | 0.0 | 1.6 | 0.08 | 0.91 | 0.71 | 92 | 1006.8 |
| 20260507114038 | 10 | 4 | 0.0 | 1.6 | 0.08 | 0.91 | 0.71 | 92 | 1006.6 |
| 20260507113538 | 10 | 4 | 0.0 | 0.0 | 0.08 | 0.91 | 0.71 | 92 | 1006.8 |
| 20260507113038 | 10 | 143 | 0.0 | 0.0 | 0.08 | 0.91 | 0.71 | 92 | 1006.5 |
| 20260507112540 | 10 | 152 | 0.0 | 1.6 | 0.08 | 0.91 | 0.71 | 92 | 1006.5 |
| 20260507112037 | 10 | 152 | 0.0 | 1.6 | 0.08 | 0.91 | 0.71 | 92 | 1006.4 |
| 20260507111537 | 10 | 152 | 0.0 | 3.2 | 0.08 | 0.89 | 0.69 | 92 | 1006.6 |
| 20260507111039 | 10 | 162 | 0.0 | 3.2 | 0.08 | 0.89 | 0.69 | 92 | 1006.6 |
| 20260507110539 | 10 | 169 | 0.0 | 1.6 | 0.05 | 0.86 | 0.66 | 92 | 1006.7 |
| 20260507110040 | 10 | 175 | 0.0 | 4.8 | 0.05 | 0.86 | 0.66 | 91 | 1006.9 |
| 20260507105535 | 10 | 340 | 0.0 | 4.8 | 0.03 | 0.84 | 0.64 | 91 | 1006.8 |
| 20260507105039 | 10 | 5 | 0.0 | 4.8 | 0.05 | 0.84 | 0.64 | 91 | 1006.4 |
| 20260507104534 | 10 | 355 | 0.0 | 4.8 | 0.08 | 0.84 | 0.64 | 91 | 1006.7 |
| 20260507104034 | 10 | 5 | 1.6 | 4.8 | 0.08 | 0.84 | 0.64 | 91 | 1006.5 |
| 20260507103535 | 10 | 9 | 1.6 | 9.7 | 0.08 | 0.84 | 0.64 | 91 | 1006.1 |
| 20260507103034 | 10 | 8 | 0.0 | 11.3 | 0.08 | 0.84 | 0.64 | 92 | 1006.2 |
| 20260507102532 | 10 | 5 | 4.8 | 11.3 | 0.10 | 0.84 | 0.64 | 92 | 1006.1 |
| 20260507102032 | 10 | 2 | 1.6 | 8.0 | 0.10 | 0.84 | 0.64 | 93 | 1005.8 |
| 20260507101532 | 10 | 5 | 0.0 | 8.0 | 0.08 | 0.81 | 0.61 | 93 | 1005.7 |
| 20260507101034 | 10 | 5 | 0.0 | 0.0 | 0.08 | 0.81 | 0.61 | 93 | 1005.7 |
| 20260507100531 | 10 | 12 | 0.0 | 0.0 | 0.08 | 0.81 | 0.61 | 93 | 1006.0 |
| 20260507100037 | 10 | 12 | 0.0 | 0.0 | 0.08 | 0.81 | 0.61 | 93 | 1006.1 |
| 20260507095530 | 10 | 357 | 0.0 | 0.0 | 0.08 | 0.81 | 0.61 | 93 | 1006.0 |
| 20260507095030 | 10 | 357 | 0.0 | 0.0 | 0.08 | 0.79 | 0.58 | 93 | 1006.0 |
| 20260507094529 | 10 | 356 | 0.0 | 0.0 | 0.05 | 0.76 | 0.56 | 93 | 1006.2 |
| 20260507094027 | 10 | 353 | 0.0 | 0.0 | 0.08 | 0.76 | 0.56 | 93 | 1006.1 |
| 20260507093527 | 10 | 353 | 0.0 | 0.0 | 0.08 | 0.76 | 0.56 | 93 | 1005.9 |
| 20260507093027 | 10 | 350 | 0.0 | 1.6 | 0.05 | 0.71 | 0.53 | 92 | 1005.8 |
| 20260507092526 | 10 | 342 | 0.0 | 1.6 | 0.05 | 0.71 | 0.53 | 92 | 1005.8 |
| 20260507092028 | 10 | 17 | 0.0 | 4.8 | 0.08 | 0.71 | 0.53 | 92 | 1005.9 |
| 20260507091525 | 10 | 9 | 0.0 | 4.8 | 0.08 | 0.71 | 0.53 | 92 | 1005.9 |
| 20260507091025 | 10 | 358 | 0.0 | 4.8 | 0.08 | 0.71 | 0.53 | 92 | 1005.7 |
| 20260507090524 | 10 | 26 | 0.0 | 4.8 | 0.10 | 0.71 | 0.53 | 92 | 1005.4 |
| 20260507090024 | 11 | 356 | 1.6 | 4.8 | 0.10 | 0.71 | 0.53 | 91 | 1005.3 |
| 20260507085523 | 11 | 359 | 1.6 | 4.8 | 0.10 | 0.71 | 0.53 | 91 | 1005.3 |
| 20260507085023 | 11 | 3 | 0.0 | 4.8 | 0.10 | 0.71 | 0.51 | 91 | 1005.8 |
| 20260507084522 | 11 | 5 | 0.0 | 4.8 | 0.15 | 0.71 | 0.51 | 92 | 1006.0 |
| 20260507084021 | 11 | 19 | 0.0 | 4.8 | 0.20 | 0.69 | 0.48 | 91 | 1005.7 |
| 20260507083521 | 11 | 357 | 0.0 | 4.8 | 0.33 | 0.69 | 0.48 | 91 | 1005.5 |
| 20260507083020 | 11 | 1 | 0.0 | 6.4 | 0.41 | 0.69 | 0.48 | 91 | 1005.4 |
| 20260507082519 | 11 | 17 | 0.0 | 8.0 | 0.43 | 0.69 | 0.48 | 91 | 1005.5 |
| 20260507082018 | 11 | 5 | 0.0 | 14.5 | 0.46 | 0.66 | 0.46 | 90 | 1005.4 |
| 20260507081534 | 11 | 337 | 6.4 | 14.5 | 0.46 | 0.66 | 0.46 | 90 | 1005.1 |
| 20260507081016 | 11 | 1 | 3.2 | 12.9 | 0.46 | 0.66 | 0.46 | 90 | 1005.3 |
| 20260507080518 | 12 | 346 | 4.8 | 12.9 | 0.43 | 0.64 | 0.43 | 91 | 1005.4 |
| 20260507080013 | 12 | 353 | 1.6 | 9.7 | 0.43 | 0.64 | 0.43 | 91 | 1005.3 |
| 20260507075516 | 12 | 358 | 1.6 | 8.0 | 0.41 | 0.61 | 0.41 | 91 | 1005.4 |
| 20260507075011 | 12 | 358 | 3.2 | 6.4 | 0.38 | 0.58 | 0.38 | 91 | 1005.3 |
| 20260507074522 | 12 | 11 | 0.0 | 9.7 | 0.33 | 0.53 | 0.33 | 91 | 1005.5 |
| 20260507074008 | 13 | 360 | 0.0 | 9.7 | 0.25 | 0.46 | 0.25 | 91 | 1005.4 |
| 20260507073507 | 13 | 14 | 1.6 | 9.7 | 0.13 | 0.33 | 0.13 | 90 | 1005.8 |
| 20260507073006 | 13 | 3 | 0.0 | 4.8 | 0.08 | 0.28 | 0.08 | 89 | 1005.4 |
| 20260507072508 | 13 | 12 | 0.0 | 3.2 | 0.03 | 0.23 | 0.03 | 87 | 1004.8 |
| 20260507072007 | 14 | 360 | 0.0 | 9.7 | 0.00 | 0.20 | 0.00 | 87 | 1004.8 |
| 20260507071507 | 14 | 16 | 0.0 | 9.7 | 0.00 | 0.20 | 0.00 | 87 | 1004.4 |
| 20260507071005 | 14 | 353 | 0.0 | 4.8 | 0.00 | 0.20 | 0.00 | 87 | 1004.1 |
| 20260507070504 | 14 | 8 | 0.0 | 3.2 | 0.00 | 0.20 | 0.00 | 87 | 1004.0 |
| 20260507070009 | 14 | 5 | 0.0 | 0.0 | 0.00 | 0.20 | 0.00 | 87 | 1004.0 |
| 20260507065505 | 14 | 5 | 0.0 | 0.0 | 0.00 | 0.20 | 0.00 | 87 | 1004.0 |
| 20260507065004 | 14 | 5 | 0.0 | 1.6 | 0.00 | 0.20 | 0.00 | 87 | 1003.9 |
| 20260507064501 | 14 | 360 | 0.0 | 6.4 | 0.00 | 0.20 | 0.00 | 87 | 1004.2 |
| 20260507064001 | 14 | 360 | 0.0 | 6.4 | 0.00 | 0.20 | 0.00 | 88 | 1004.3 |
| 20260507063501 | 14 | 19 | 0.0 | 1.6 | 0.00 | 0.20 | 0.00 | 88 | 1004.5 |
| 20260507063100 | 14 | 19 | 0.0 | 4.8 | 0.00 | 0.20 | 0.00 | 89 | 1004.5 |
| 20260507062559 | 14 | 355 | 0.0 | 6.4 | 0.00 | 0.20 | 0.00 | 90 | 1004.4 |
| 20260507062058 | 14 | 162 | 1.6 | 6.4 | 0.00 | 0.20 | 0.00 | 92 | 1004.6 |
| 20260507061606 | 14 | 192 | 0.0 | 0.0 | 0.00 | 0.20 | 0.00 | 93 | 1004.5 |
| 20260507061058 | 14 | 196 | 0.0 | 0.0 | 0.00 | 0.20 | 0.00 | 93 | 1004.3 |
| 20260507060558 | 14 | 195 | 0.0 | 0.0 | 0.00 | 0.20 | 0.00 | 93 | 1004.3 |
| 20260507060057 | 14 | 196 | 0.0 | 0.0 | 0.00 | 0.20 | 0.00 | 93 | 1004.4 |
| 20260507055555 | 14 | 196 | 0.0 | 0.0 | 0.00 | 0.20 | 0.00 | 93 | 1004.5 |
| 20260507055054 | 14 | 196 | 0.0 | 0.0 | 0.00 | 0.20 | 0.00 | 93 | 1004.7 |
| 20260507054636 | 14 | 196 | 0.0 | 0.0 | 0.00 | 0.20 | 0.00 | 93 | 1004.8 |
| 20260507054054 | 14 | 196 | 0.0 | 0.0 | 0.00 | 0.20 | 0.00 | 93 | 1004.9 |
| 20260507053554 | 14 | 196 | 0.0 | 0.0 | 0.00 | 0.20 | 0.00 | 93 | 1004.7 |
| 20260507053054 | 14 | 196 | 0.0 | 0.0 | 0.00 | 0.20 | 0.00 | 93 | 1004.8 |
| 20260507052552 | 14 | 196 | 0.0 | 0.0 | 0.00 | 0.20 | 0.00 | 93 | 1005.0 |
| 20260507052052 | 14 | 196 | 0.0 | 0.0 | 0.00 | 0.20 | 0.00 | 93 | 1005.1 |
| 20260507051552 | 14 | 196 | 0.0 | 0.0 | 0.00 | 0.20 | 0.00 | 93 | 1005.1 |
| 20260507051051 | 13 | 196 | 0.0 | 0.0 | 0.00 | 0.20 | 0.00 | 93 | 1005.2 |
| 20260507050551 | 13 | 196 | 0.0 | 0.0 | 0.00 | 0.20 | 0.00 | 93 | 1005.3 |
| 20260507050056 | 13 | 196 | 0.0 | 0.0 | 0.00 | 0.20 | 0.00 | 93 | 1005.3 |
| 20260507045551 | 13 | 196 | 0.0 | 0.0 | 0.00 | 0.20 | 0.00 | 93 | 1005.2 |
| 20260507045051 | 13 | 196 | 0.0 | 0.0 | 0.00 | 0.20 | 0.00 | 93 | 1005.3 |
| 20260507044554 | 13 | 196 | 0.0 | 0.0 | 0.00 | 0.20 | 0.00 | 93 | 1005.1 |